Home > Weather > Kairouan > Past weeks

Flag for Tunisia Past Weather in Kairouan, Tunisia — Yesterday and Last 2 Weeks

Now
82 °F

Sunny.


Feels Like: 82 °F
Forecast: 74 / 96 °F
Wind: No wind

Location: Kairouan Airport

Current Time: Jul 25, 2016 at 9:21:23 AM

Latest Report: Jul 25, 2016 at 9:00 AM


Visibility: 10 mi

Pressure: 30.01 "Hg

Humidity: 45%

Dew Point: 59 °F

Location of KairouanLocation

Past Weather in Kairouan — Graph

°F

Kairouan Temperature Yesterday

Maximum temperature yesterday: 97 °F (at 3:00 PM)
Minimum temperature yesterday: 77 °F (at 4:00 AM)
Average temperature yesterday: 85 °F

High & Low Weather Summary for the Past Weeks

 TemperatureHumidityPressure
High109 °F (Jul 11, 2:00 PM)83% (Jul 12, 6:00 AM)30.15 "Hg (Jul 12, 6:00 AM)
Low68 °F (Jul 17, 5:00 AM)16% (Jul 20, 4:00 PM)29.77 "Hg (Jul 11, 4:00 PM)
Average85 °F40%29.99 "Hg
* Reported Jul 10 8:00 AM — Jul 25 8:00 AM, Kairouan, Weather by CustomWeather, © 2016

Note: Actual official high and low records may vary slightly from our data, if they occured in-between our weather recording intervals... More about our weather records

Advertising

Kairouan Weather History for the Previous 24 Hours

Scroll right to see more
 ConditionsComfort  
Time TempWeatherWind HumidityBarometerVisibility
8:00 AM
Mon, Jul 25
81 °FSunny.No wind51%30.01 "Hg10 mi
7:00 AM79 °FWarm.No wind54%30.01 "HgN/A
6:00 AM75 °FMild.No wind65%30.01 "HgN/A
5:00 AM75 °FMild.No wind69%30.01 "HgN/A
4:00 AM77 °FWarm.No wind65%30.01 "HgN/A
3:00 AM77 °FWarm.No wind65%30.01 "HgN/A
2:00 AM77 °FWarm.No wind65%30.01 "HgN/A
1:00 AM79 °FWarm.No wind61%30.01 "HgN/A
12:00 AM79 °FWarm.No wind61%30.04 "HgN/A
11:00 PM
Sun, Jul 24
79 °FWarm.No wind58%30.04 "HgN/A
10:00 PM81 °FWarm.No wind54%30.01 "HgN/A
9:00 PM82 °FWarm.1 mph51%30.01 "HgN/A
8:00 PM82 °FPassing clouds.2 mph51%29.98 "HgN/A
7:00 PM86 °FPassing clouds.5 mph49%29.98 "HgN/A
6:00 PM90 °FScattered clouds.6 mph36%29.95 "HgN/A
5:00 PM93 °FScattered clouds.7 mph34%29.95 "HgN/A
4:00 PM95 °FScattered clouds.2 mph32%29.95 "HgN/A
3:00 PM97 °FPassing clouds.No wind30%29.95 "HgN/A
2:00 PM95 °FPassing clouds.2 mph32%29.98 "HgN/A
1:00 PM93 °FPassing clouds.2 mph32%29.98 "HgN/A
12:00 PM91 °FPassing clouds.2 mph36%30.01 "HgN/A
11:00 AM90 °FPassing clouds.No wind36%30.01 "HgN/A
10:00 AM86 °FPassing clouds.No wind46%30.01 "HgN/A
9:00 AM84 °FScattered clouds.No wind51%30.01 "HgN/A
Weather by CustomWeather, © 2016

See weather overviewHow to use our weather pages